Time,TemperatureF,DewpointF,PressureIn,WindDirection,WindDirectionDegrees,WindSpeedMPH,WindSpeedGustMPH,Humidity,HourlyPrecipIn,Conditions,Clouds,dailyrainin,SoftwareType,DateUTC
2013-04-15 00:03:00,59.0,38.0,30.02,South,190,1.0,6.0,46,0.00,,,0.00,,2013-04-15 04:03:00,
2013-04-15 00:13:00,59.0,38.0,30.02,South,190,1.0,6.0,46,0.00,,,0.00,,2013-04-15 04:13:00,
2013-04-15 00:23:00,59.0,38.0,30.02,SSW,208,1.0,8.0,46,0.00,,,0.00,,2013-04-15 04:23:00,
2013-04-15 00:33:00,59.0,39.0,30.02,South,182,1.0,5.0,47,0.00,,,0.00,,2013-04-15 04:33:00,
2013-04-15 00:43:00,59.0,39.0,30.02,South,182,1.0,5.0,47,0.00,,,0.00,,2013-04-15 04:43:00,
2013-04-15 00:53:00,59.0,39.0,30.03,SE,142,0.0,5.0,48,0.00,,,0.00,,2013-04-15 04:53:00,
2013-04-15 01:03:00,59.0,40.0,30.03,North,360,2.0,6.0,49,0.00,,,0.00,,2013-04-15 05:03:00,
2013-04-15 01:13:00,59.0,40.0,30.03,North,360,2.0,6.0,49,0.00,,,0.00,,2013-04-15 05:13:00,
2013-04-15 01:23:00,58.0,39.0,30.02,WSW,242,0.0,6.0,49,0.00,,,0.00,,2013-04-15 05:23:00,
2013-04-15 01:33:00,58.0,39.0,30.03,SE,128,1.0,4.0,50,0.00,,,0.00,,2013-04-15 05:33:00,
2013-04-15 01:42:00,58.0,39.0,30.03,SE,128,1.0,4.0,50,0.00,,,0.00,,2013-04-15 05:42:00,
2013-04-15 01:53:00,59.0,40.0,30.02,SW,233,2.0,4.0,50,0.00,,,0.00,,2013-04-15 05:53:00,
2013-04-15 02:02:00,59.0,40.0,30.02,WSW,245,1.0,6.0,49,0.00,,,0.00,,2013-04-15 06:02:00,
2013-04-15 02:12:00,59.0,40.0,30.02,WSW,245,1.0,6.0,49,0.00,,,0.00,,2013-04-15 06:12:00,
2013-04-15 02:23:00,59.0,40.0,30.02,SE,136,2.0,5.0,49,0.00,,,0.00,,2013-04-15 06:23:00,
2013-04-15 02:33:00,59.0,40.0,30.02,ENE,65,0.0,6.0,50,0.00,,,0.00,,2013-04-15 06:33:00,
2013-04-15 02:42:00,59.0,40.0,30.02,ENE,65,0.0,6.0,50,0.00,,,0.00,,2013-04-15 06:42:00,
2013-04-15 02:53:00,58.0,40.0,30.01,ESE,111,2.0,6.0,51,0.00,,,0.00,,2013-04-15 06:53:00,
2013-04-15 03:03:00,58.0,40.0,30.01,South,179,1.0,4.0,52,0.00,,,0.00,,2013-04-15 07:03:00,
2013-04-15 03:41:00,58.0,40.0,30.01,South,179,1.0,4.0,52,0.00,,,0.00,,2013-04-15 07:41:00,
2013-04-15 03:42:00,58.0,40.0,30.01,SSE,166,1.0,5.0,52,0.00,,,0.00,,2013-04-15 07:42:00,
2013-04-15 03:43:00,58.0,40.0,30.01,West,269,0.0,4.0,52,0.00,,,0.00,,2013-04-15 07:43:00,
2013-04-15 03:54:00,57.0,40.0,30.01,South,178,0.0,4.0,53,0.00,,,0.00,,2013-04-15 07:54:00,
2013-04-15 04:03:00,57.0,40.0,30.01,South,172,0.0,4.0,53,0.00,,,0.00,,2013-04-15 08:03:00,
2013-04-15 04:13:00,57.0,40.0,30.01,South,172,0.0,4.0,53,0.00,,,0.00,,2013-04-15 08:13:00,
2013-04-15 04:22:00,57.0,40.0,30.01,ENE,69,0.0,4.0,53,0.00,,,0.00,,2013-04-15 08:22:00,
2013-04-15 04:34:00,57.0,40.0,30.02,ESE,103,0.0,2.0,52,0.00,,,0.00,,2013-04-15 08:34:00,
2013-04-15 04:43:00,57.0,40.0,30.02,ESE,103,0.0,2.0,52,0.00,,,0.00,,2013-04-15 08:43:00,
2013-04-15 04:52:00,58.0,41.0,30.02,SE,138,0.0,2.0,53,0.00,,,0.00,,2013-04-15 08:52:00,
2013-04-15 05:03:00,57.0,40.0,30.03,SE,138,0.0,1.0,53,0.00,,,0.00,,2013-04-15 09:03:00,
2013-04-15 05:12:00,57.0,40.0,30.03,SE,138,0.0,1.0,53,0.00,,,0.00,,2013-04-15 09:12:00,
2013-04-15 05:23:00,58.0,41.0,30.03,ESE,119,0.0,4.0,53,0.00,,,0.00,,2013-04-15 09:23:00,
2013-04-15 05:33:00,58.0,41.0,30.04,SSE,155,0.0,6.0,53,0.00,,,0.00,,2013-04-15 09:33:00,
2013-04-15 05:43:00,58.0,41.0,30.04,SSE,155,0.0,6.0,53,0.00,,,0.00,,2013-04-15 09:43:00,
2013-04-15 05:53:00,58.0,43.0,30.05,NE,53,1.0,6.0,58,0.00,,,0.00,,2013-04-15 09:53:00,
2013-04-15 06:03:00,58.0,45.0,30.05,ENE,71,1.0,7.0,61,0.00,,,0.00,,2013-04-15 10:03:00,
2013-04-15 06:13:00,58.0,45.0,30.05,ENE,71,1.0,7.0,61,0.00,,,0.00,,2013-04-15 10:13:00,
2013-04-15 06:23:00,58.0,45.0,30.05,South,171,1.0,13.0,63,0.00,,,0.00,,2013-04-15 10:23:00,
2013-04-15 06:33:00,57.0,45.0,30.05,ENE,74,1.0,4.0,65,0.00,,,0.00,,2013-04-15 10:33:00,
2013-04-15 06:42:00,57.0,45.0,30.05,ENE,74,1.0,4.0,65,0.00,,,0.00,,2013-04-15 10:42:00,
2013-04-15 06:53:00,57.0,46.0,30.06,ENE,57,1.0,8.0,66,0.00,,,0.00,,2013-04-15 10:53:00,
2013-04-15 07:03:00,56.0,45.0,30.06,ESE,123,0.0,6.0,67,0.00,,,0.00,,2013-04-15 11:03:00,
2013-04-15 07:13:00,56.0,45.0,30.06,ESE,123,0.0,6.0,67,0.00,,,0.00,,2013-04-15 11:13:00,
2013-04-15 07:23:00,56.0,46.0,30.10,South,175,2.0,5.0,69,0.00,,,0.00,,2013-04-15 11:23:00,
2013-04-15 07:32:00,55.0,46.0,30.10,SSE,155,1.0,8.0,71,0.00,,,0.00,,2013-04-15 11:32:00,
2013-04-15 07:43:00,55.0,46.0,30.10,SSE,155,1.0,8.0,71,0.00,,,0.00,,2013-04-15 11:43:00,
2013-04-15 07:54:00,55.0,47.0,30.10,East,91,1.0,5.0,74,0.00,,,0.00,,2013-04-15 11:54:00,
2013-04-15 08:04:00,54.0,47.0,30.10,SW,214,1.0,5.0,76,0.00,,,0.00,,2013-04-15 12:04:00,
2013-04-15 08:14:00,54.0,47.0,30.10,SW,214,1.0,5.0,76,0.00,,,0.00,,2013-04-15 12:14:00,
2013-04-15 08:23:00,54.0,47.0,30.09,South,174,3.0,6.0,78,0.00,,,0.00,,2013-04-15 12:23:00,
2013-04-15 08:33:00,54.0,47.0,30.09,ESE,104,2.0,6.0,77,0.00,,,0.00,,2013-04-15 12:33:00,
2013-04-15 08:43:00,54.0,47.0,30.09,ESE,104,2.0,6.0,77,0.00,,,0.00,,2013-04-15 12:43:00,
2013-04-15 08:53:00,55.0,47.0,30.09,SSE,168,2.0,8.0,73,0.00,,,0.00,,2013-04-15 12:53:00,
2013-04-15 09:04:00,55.0,46.0,30.09,NNW,348,2.0,9.0,71,0.00,,,0.00,,2013-04-15 13:04:00,
2013-04-15 09:13:00,55.0,46.0,30.09,NNW,348,2.0,9.0,71,0.00,,,0.00,,2013-04-15 13:13:00,
2013-04-15 09:23:00,56.0,45.0,30.08,South,182,3.0,9.0,67,0.00,,,0.00,,2013-04-15 13:23:00,
2013-04-15 09:33:00,56.0,46.0,30.08,SE,136,3.0,10.0,68,0.00,,,0.00,,2013-04-15 13:33:00,
2013-04-15 09:43:00,56.0,46.0,30.08,SE,136,3.0,10.0,68,0.00,,,0.00,,2013-04-15 13:43:00,
2013-04-15 09:54:00,57.0,46.0,30.09,NE,44,1.0,9.0,67,0.00,,,0.00,,2013-04-15 13:54:00,
2013-04-15 10:05:00,57.0,46.0,30.08,SE,146,2.0,8.0,67,0.00,,,0.00,,2013-04-15 14:05:00,
2013-04-15 10:13:00,57.0,46.0,30.08,SE,146,2.0,8.0,67,0.00,,,0.00,,2013-04-15 14:13:00,
2013-04-15 10:23:00,57.0,46.0,30.09,SSW,200,2.0,7.0,67,0.00,,,0.00,,2013-04-15 14:23:00,
2013-04-15 10:33:00,56.0,47.0,30.09,SSW,202,1.0,6.0,73,0.00,,,0.00,,2013-04-15 14:33:00,
2013-04-15 10:44:00,56.0,47.0,30.09,SSW,202,1.0,6.0,73,0.00,,,0.00,,2013-04-15 14:44:00,
2013-04-15 10:55:00,55.0,46.0,30.10,SSE,167,3.0,7.0,72,0.00,,,0.00,,2013-04-15 14:55:00,
2013-04-15 11:04:00,56.0,47.0,30.10,SSE,165,2.0,6.0,72,0.00,,,0.00,,2013-04-15 15:04:00,
2013-04-15 11:13:00,56.0,47.0,30.10,SSE,165,2.0,6.0,72,0.00,,,0.00,,2013-04-15 15:13:00,
2013-04-15 11:24:00,56.0,48.0,30.10,North,5,1.0,9.0,75,0.00,,,0.00,,2013-04-15 15:24:00,
2013-04-15 11:35:00,57.0,48.0,30.10,SSW,193,2.0,7.0,71,0.00,,,0.00,,2013-04-15 15:35:00,
2013-04-15 11:44:00,57.0,48.0,30.10,SSW,193,2.0,7.0,71,0.00,,,0.00,,2013-04-15 15:44:00,
2013-04-15 11:55:00,57.0,47.0,30.10,South,173,1.0,5.0,70,0.00,,,0.00,,2013-04-15 15:55:00,
2013-04-15 12:05:00,57.0,47.0,30.10,NE,56,0.0,5.0,68,0.00,,,0.00,,2013-04-15 16:05:00,
2013-04-15 12:14:00,57.0,47.0,30.10,NE,56,0.0,5.0,68,0.00,,,0.00,,2013-04-15 16:14:00,
2013-04-15 12:25:00,58.0,47.0,30.10,South,189,0.0,6.0,66,0.00,,,0.00,,2013-04-15 16:25:00,
2013-04-15 12:34:00,58.0,46.0,30.11,ESE,110,2.0,7.0,64,0.00,,,0.00,,2013-04-15 16:34:00,
2013-04-15 12:44:00,58.0,46.0,30.11,ESE,110,2.0,7.0,64,0.00,,,0.00,,2013-04-15 16:44:00,
2013-04-15 12:54:00,58.0,47.0,30.10,South,188,1.0,8.0,67,0.00,,,0.00,,2013-04-15 16:54:00,
2013-04-15 13:04:00,58.0,47.0,30.10,North,360,3.0,7.0,67,0.00,,,0.00,,2013-04-15 17:04:00,
2013-04-15 13:15:00,58.0,47.0,30.10,North,360,3.0,7.0,67,0.00,,,0.00,,2013-04-15 17:15:00,
2013-04-15 13:22:00,59.0,48.0,30.11,SSE,166,2.0,8.0,66,0.00,,,0.00,,2013-04-15 17:22:00,
2013-04-15 13:33:00,59.0,48.0,30.11,East,82,1.0,12.0,66,0.00,,,0.00,,2013-04-15 17:33:00,
2013-04-15 13:43:00,59.0,48.0,30.11,East,82,1.0,12.0,66,0.00,,,0.00,,2013-04-15 17:43:00,
2013-04-15 13:53:00,59.0,47.0,30.11,SE,134,3.0,7.0,64,0.00,,,0.00,,2013-04-15 17:53:00,
2013-04-15 14:03:00,59.0,47.0,30.11,NE,42,1.0,11.0,65,0.00,,,0.00,,2013-04-15 18:03:00,
2013-04-15 14:13:00,59.0,47.0,30.11,NE,42,1.0,11.0,65,0.00,,,0.00,,2013-04-15 18:13:00,
2013-04-15 14:33:00,59.0,49.0,30.10,NW,319,3.0,6.0,69,0.00,,,0.00,,2013-04-15 18:33:00,
2013-04-15 14:42:00,59.0,49.0,30.10,NW,319,3.0,6.0,69,0.00,,,0.00,,2013-04-15 18:42:00,
2013-04-15 14:52:00,59.0,49.0,30.10,ESE,123,0.0,7.0,69,0.00,,,0.00,,2013-04-15 18:52:00,
2013-04-15 15:02:00,59.0,48.0,30.11,SE,133,0.0,8.0,67,0.00,,,0.00,,2013-04-15 19:02:00,
2013-04-15 15:12:00,59.0,48.0,30.11,SE,133,0.0,8.0,67,0.00,,,0.00,,2013-04-15 19:12:00,
2013-04-15 15:22:00,59.0,48.0,30.11,NW,313,0.0,7.0,66,0.00,,,0.00,,2013-04-15 19:22:00,
2013-04-15 15:38:00,60.0,47.0,30.10,South,180,0.0,6.0,63,0.00,,,0.00,,2013-04-15 19:38:00,
2013-04-15 15:55:00,60.0,47.0,30.10,South,180,0.0,6.0,63,0.00,,,0.00,,2013-04-15 19:55:00,
2013-04-15 16:01:00,60.0,47.0,30.11,SE,132,0.0,7.0,62,0.00,,,0.00,,2013-04-15 20:01:00,
2013-04-15 16:02:00,61.0,47.0,30.11,SE,142,0.0,8.0,61,0.00,,,0.00,,2013-04-15 20:02:00,
2013-04-15 16:12:00,61.0,47.0,30.11,SE,142,0.0,8.0,61,0.00,,,0.00,,2013-04-15 20:12:00,
2013-04-15 16:22:00,61.0,48.0,30.10,NNE,19,1.0,5.0,63,0.00,,,0.00,,2013-04-15 20:22:00,
2013-04-15 16:32:00,62.0,48.0,30.10,NW,325,0.0,9.0,60,0.00,,,0.00,,2013-04-15 20:32:00,
2013-04-15 16:42:00,62.0,48.0,30.10,NW,325,0.0,9.0,60,0.00,,,0.00,,2013-04-15 20:42:00,
2013-04-15 16:52:00,63.0,48.0,30.09,NE,46,2.0,7.0,58,0.00,,,0.00,,2013-04-15 20:52:00,
2013-04-15 17:02:00,64.0,49.0,30.09,SW,219,0.0,8.0,58,0.00,,,0.00,,2013-04-15 21:02:00,
2013-04-15 17:12:00,64.0,49.0,30.09,SW,219,0.0,8.0,58,0.00,,,0.00,,2013-04-15 21:12:00,
2013-04-15 17:22:00,64.0,49.0,30.08,NNE,17,1.0,11.0,58,0.00,,,0.00,,2013-04-15 21:22:00,
2013-04-15 17:33:00,64.0,48.0,30.09,South,187,3.0,8.0,56,0.00,,,0.00,,2013-04-15 21:33:00,
2013-04-15 17:43:00,64.0,48.0,30.09,South,187,3.0,8.0,56,0.00,,,0.00,,2013-04-15 21:43:00,
2013-04-15 17:53:00,62.0,47.0,30.09,SSW,213,1.0,14.0,59,0.00,,,0.00,,2013-04-15 21:53:00,
2013-04-15 18:02:00,62.0,47.0,30.10,South,186,0.0,7.0,59,0.00,,,0.00,,2013-04-15 22:02:00,
2013-04-15 18:13:00,62.0,47.0,30.10,South,186,0.0,7.0,59,0.00,,,0.00,,2013-04-15 22:13:00,
2013-04-15 18:23:00,62.0,47.0,30.11,SSE,151,0.0,10.0,59,0.00,,,0.00,,2013-04-15 22:23:00,
2013-04-15 18:33:00,62.0,47.0,30.11,South,170,1.0,6.0,59,0.00,,,0.00,,2013-04-15 22:33:00,
2013-04-15 18:42:00,62.0,47.0,30.11,South,170,1.0,6.0,59,0.00,,,0.00,,2013-04-15 22:42:00,
2013-04-15 18:52:00,62.0,47.0,30.11,South,180,0.0,8.0,59,0.00,,,0.00,,2013-04-15 22:52:00,
2013-04-15 19:02:00,62.0,47.0,30.11,South,175,5.0,8.0,59,0.00,,,0.00,,2013-04-15 23:02:00,
2013-04-15 19:12:00,62.0,47.0,30.11,South,175,5.0,8.0,59,0.00,,,0.00,,2013-04-15 23:12:00,
2013-04-15 19:22:00,62.0,47.0,30.11,South,183,0.0,7.0,58,0.00,,,0.00,,2013-04-15 23:22:00,
2013-04-15 19:32:00,62.0,47.0,30.10,SSE,161,1.0,5.0,58,0.00,,,0.00,,2013-04-15 23:32:00,
2013-04-15 19:42:00,62.0,47.0,30.10,SSE,161,1.0,5.0,58,0.00,,,0.00,,2013-04-15 23:42:00,
2013-04-15 19:52:00,62.0,47.0,30.10,SSE,150,1.0,7.0,58,0.00,,,0.00,,2013-04-15 23:52:00,
2013-04-15 20:02:00,62.0,47.0,30.09,East,80,3.0,7.0,58,0.00,,,0.00,,2013-04-16 00:02:00,
2013-04-15 20:12:00,62.0,47.0,30.09,East,80,3.0,7.0,58,0.00,,,0.00,,2013-04-16 00:12:00,
2013-04-15 20:22:00,61.0,47.0,30.09,NE,49,0.0,8.0,60,0.00,,,0.00,,2013-04-16 00:22:00,
2013-04-15 20:32:00,60.0,47.0,30.10,East,79,3.0,5.0,62,0.00,,,0.00,,2013-04-16 00:32:00,
2013-04-15 20:42:00,60.0,47.0,30.10,East,79,3.0,5.0,62,0.00,,,0.00,,2013-04-16 00:42:00,
2013-04-15 20:52:00,59.0,46.0,30.10,SE,136,0.0,2.0,63,0.00,,,0.00,,2013-04-16 00:52:00,
2013-04-15 21:02:00,58.0,46.0,30.11,ESE,113,0.0,4.0,65,0.00,,,0.00,,2013-04-16 01:02:00,
2013-04-15 21:12:00,58.0,46.0,30.11,ESE,113,0.0,4.0,65,0.00,,,0.00,,2013-04-16 01:12:00,
2013-04-15 21:22:00,58.0,47.0,30.12,ESE,105,0.0,6.0,66,0.00,,,0.00,,2013-04-16 01:22:00,
2013-04-15 21:32:00,57.0,47.0,30.12,SE,127,1.0,4.0,68,0.00,,,0.00,,2013-04-16 01:32:00,
2013-04-15 21:42:00,57.0,47.0,30.12,SE,127,1.0,4.0,68,0.00,,,0.00,,2013-04-16 01:42:00,
2013-04-15 21:52:00,57.0,47.0,30.13,ESE,122,0.0,2.0,68,0.00,,,0.00,,2013-04-16 01:52:00,
2013-04-15 22:02:00,56.0,46.0,30.13,East,96,0.0,2.0,70,0.00,,,0.00,,2013-04-16 02:02:00,
2013-04-15 22:12:00,56.0,46.0,30.13,East,96,0.0,2.0,70,0.00,,,0.00,,2013-04-16 02:12:00,
2013-04-15 22:22:00,56.0,47.0,30.14,East,97,0.0,2.0,71,0.00,,,0.00,,2013-04-16 02:22:00,
2013-04-15 22:32:00,55.0,47.0,30.14,East,94,1.0,4.0,73,0.00,,,0.00,,2013-04-16 02:32:00,
2013-04-15 22:42:00,55.0,47.0,30.14,East,94,1.0,4.0,73,0.00,,,0.00,,2013-04-16 02:42:00,
2013-04-15 22:52:00,55.0,47.0,30.14,East,96,0.0,4.0,74,0.00,,,0.00,,2013-04-16 02:52:00,
2013-04-15 23:02:00,54.0,46.0,30.14,SE,144,0.0,1.0,75,0.00,,,0.00,,2013-04-16 03:02:00,
2013-04-15 23:12:00,54.0,46.0,30.14,SE,144,0.0,1.0,75,0.00,,,0.00,,2013-04-16 03:12:00,
2013-04-15 23:22:00,54.0,47.0,30.14,ESE,105,0.0,2.0,76,0.00,,,0.00,,2013-04-16 03:22:00,
2013-04-15 23:33:00,54.0,47.0,30.14,ESE,109,0.0,2.0,77,0.00,,,0.00,,2013-04-16 03:33:00,
2013-04-15 23:43:00,54.0,47.0,30.14,ESE,109,0.0,2.0,77,0.00,,,0.00,,2013-04-16 03:43:00,
2013-04-15 23:53:00,54.0,47.0,30.13,SE,130,0.0,2.0,77,0.00,,,0.00,,2013-04-16 03:53:00,